Regional Weather Roundup
Issued by NWS Sterling, VA

Home | Current Version | Previous Version | Graphics & Text | Print | Product List | Glossary On
Versions: 1 2 3 4 5 6 7 8 9 10 11 12 13 14 15 16 17 18 19 20 21 22 23 24 25 26 27
000
ASUS41 KLWX 280110
RWRLWX

REGIONAL WEATHER ROUNDUP
NATIONAL WEATHER SERVICE BALTIMORE MD/WASHINGTON DC
900 PM EDT TUE SEP 27 2016

Note: "FAIR" indicates few or no clouds below 12,000 feet
with no significant weather and/or obstructions to visibility.
 TC=TEMPERATURE CELSIUS

 * =Non NWS site. Station does not report precipitation (e.g. rain,
    snow, etc.), thunder, or fog.

DCZ001-MDZ009-015-VAZ040>042-051-053>054-280200-
WASHINGTON METRO

CITY           SKY/WX    TMP DP  RH WIND       PRES   REMARKS
WASHINGTON NAT PTCLDY    68  63  84 SE6       29.93R
DULLES         PTCLDY    64  56  75 SE5       29.93R
ANDREWS AFB    CLEAR     62  59  90 E5        29.93R
FT BELVOIR     CLEAR     61  59  94 CALM      29.93R
QUANTICO       PTCLDY    69  64  84 S8        29.93R
COLLEGE PARK*  CLEAR     59  55  88 CALM      29.93R
LEESBURG*      CLEAR     68  59  73 S3        29.93S
MANASSAS*      CLEAR     63  59  88 CALM      29.93R
GAITHERSBURG*  CLEAR     61  54  77 CALM      29.97R

$$

MDZ006>007-011-014-280200-
BALTIMORE METRO

CITY           SKY/WX    TMP DP  RH WIND       PRES   REMARKS
BWI AIRPORT    PTCLDY    64  58  80 CALM      29.93R
MD SCIENCE CTR   N/A     68  58  70 MISG      29.93S
MARTIN STATE   CLEAR     64  64 100 CALM      29.94R
ANNAPOLIS      PTCLDY    67  61  81 S5        29.93R
FORT MEADE*    CLEAR     59  55  88 CALM      29.95S

$$

MDZ012-015-019>023-280200-
MARYLAND EASTERN SHORE

CITY           SKY/WX    TMP DP  RH WIND       PRES   REMARKS
OCEAN CITY     CLOUDY    70  66  87 CALM      29.94R
SALISBURY      CLOUDY    67  66  97 E7        29.93S
BAY BRIDGE AP* PTCLDY    64  61  88 MISG      29.93S
CAMBRIDGE*     CLEAR     61  61 100 CALM      29.93R
EASTON*        PTCLDY    64  61  88 CALM      29.98R

$$

MDZ017>025-280200-
SOUTHERN MARYLAND

CITY           SKY/WX    TMP DP  RH WIND       PRES   REMARKS
PATUXENT RIVER PTCLDY    65  63  93 CALM      29.92S
ST INIGOES     CLEAR     65  63  93 CALM      29.92R FOG
LEONARDTOWN*   PTCLDY    63  61  94 CALM      29.95R

$$

MDZ003>005-280200-
NORTH CENTRAL MARYLAND

CITY           SKY/WX    TMP DP  RH WIND       PRES   REMARKS
FREDERICK*     NOT AVBL
HAGERSTOWN APT CLEAR     67  48  50 SE6       29.92R

$$

MDZ501>502-280200-
WESTERN MARYLAND

CITY           SKY/WX    TMP DP  RH WIND       PRES   REMARKS
OAKLAND*       CLEAR     54  37  54 W5        29.97S
CUMBERLAND*    CLEAR     63  43  48 N6        29.95S

$$

VAZ025>031-280200-
SHENANDOAH VALLEY

CITY           SKY/WX    TMP DP  RH WIND       PRES   REMARKS
WINCHESTER*    CLEAR     63  55  77 S3        29.92R
FRONT ROYAL*   FAIR      63  59  88 CALM      29.90R
LURAY*         FAIR      63  63 100 CALM      29.91S
NEW MARKET*    FAIR     N/A N/A N/A CALM      29.90R
STAUNTON*      CLEAR     59  56  91 CALM      29.93S
WAYNESBORO*    FAIR      66  64  91 SE3       29.93R

$$

WVZ021-048>050-054>055-280200-
EASTERN WEST VIRGINIA PANHANDLE

CITY           SKY/WX    TMP DP  RH WIND       PRES   REMARKS
MARTINSBURG    CLEAR     63  54  72 W3        29.91R
PETERSBURG*    CLEAR     57  44  60 CALM      29.92R

$$

VAZ036>039-050-280200-
CENTRAL FOOTHILLS

CITY           SKY/WX    TMP DP  RH WIND       PRES   REMARKS
CHARLOTTESVILL PTCLDY    68  64  87 CALM      29.92R
CULPEPER*      CLEAR     61  61  98 CALM      29.93S
ORANGE*          N/A     63  63 100 CALM      29.94R
GORDONSVILLE*  FAIR      63  63 100 CALM      29.92R
WARRENTON*     FAIR      60  54  81 CALM      29.92R

$$

VAZ055>057-280200-
NORTH AND CENTRAL PIEDMONT

CITY           SKY/WX    TMP DP  RH WIND       PRES   REMARKS
FREDERICKSBRG* CLOUDY    68  68 100 CALM      29.92R
STAFFORD*      CLOUDY    62  62 100 CALM      29.97R

$$

NCZ024-NYZ072-PAZ021-071-VAZ022-071-280200-
OTHER REGIONAL OBSERVATIONS

CITY           SKY/WX    TMP DP  RH WIND       PRES   REMARKS
NEW YORK CITY  CLEAR     66  61  84 CALM      29.97R
PHILADELPHIA   PTCLDY    67  60  78 S7        29.95R
PITTSBURGH     MOCLDY    59  41  51 S3        29.90R
ROANOKE        PTCLDY    69  60  73 E3        29.93R
RICHMOND       MOCLDY    68  67  96 SE5       29.92R
RALEIGH        MOCLDY    73  69  87 SE5       29.91R

$$

ANZ530>537-280200-
MARINE OBSERVATIONS

STATION/POSITION TIME  TEMP    WIND        PRES
                       AIR SEA DIR/SP/G
                 (UTC) (F)     (DEG/KT/KT) (MB)
THOMAS PT LIGHT  0100   69 74  150/  9/ 11 1014.8R
BALT KEY BRIDGE  0042   69     160/  8/  9 1013.2R
COVE POINT       0042   70     160/  7/  8 1013.9R
LEWISETTA        0042   70 73  150/  4/  5 1012.6S
SOLOMONS ISLAND  0042   70 75  160/  3/  4   N/A
PINEY POINT      0036           50/  2/  3   N/A

$$





USA.gov is the U.S. government's official web portal to all federal, state and local government web resources and services.